Regional Weather Roundup
Issued by NWS

Home | Current Version | Previous Version | Text Only | Print | Product List | Glossary Off
Versions: 1 2 3 4 5 6 7 8 9 10 11 12 13 14 15 16 17 18 19 20 21 22 23 24 25 26 27 28 29 30 31 32 33 34 35 36 37 38 39 40 41 42 43 44 45 46 47 48 49 50

000
ASUS43 KMPX 290701
RWRMN
WEATHER ROUNDUP FOR MINNESOTA
NATIONAL WEATHER SERVICE TWIN CITIES/CHANHASSEN MN
200 AM CDT FRI JUL 29 2016


NOTE: "FAIR" INDICATES FEW OR NO CLOUDS BELOW 12,000 FEET WITH NO
SIGNIFICANT WEATHER AND/OR OBSTRUCTIONS TO VISIBILITY. N/A MEANS
CURRENT SKY AND/OR WEATHER CONDITIONS ARE NOT AVAILABLE.

MNZ060>063-068>070-290800-
   Twin Cities Metro

CITY           SKY/WX    TMP DP  RH WIND       PRES   REMARKS
TWIN CITIES    MOCLDY    66  56  70 N5        30.06S
ST PAUL        MOCLDY    65  56  72 N3        30.07R
CRYSTAL        CLEAR     62  56  80 N3        30.06R
BLAINE         CLEAR     63  59  88 N5        30.07S
LAKEVILLE      CLOUDY    64  64 100 CALM      30.06S
EDEN PRAIRIE   PTCLDY    65  57  75 N5        30.05S
LAKEVILLE      CLOUDY    64  64 100 CALM      30.06S
SOUTH ST PAUL  CLOUDY    66  56  71 NE3       30.06S
LAKE ELMO      CLOUDY    63  57  82 CALM      30.07S
$$
MNZ001>005-007-008-013>017-022>024-027-028-290800-
   Northwest Minnesota

CITY           SKY/WX    TMP DP  RH WIND       PRES   REMARKS
BEMIDJI        CLEAR     57  54  88 W6        30.11R
HALLOCK        CLEAR     55  54  94 N3        30.10S
ROSEAU         CLEAR     54  48  82 CALM      30.11S
WARROAD        CLEAR     55  52  88 CALM      30.11S
THIEF RVR FALL CLEAR     57  56  96 CALM      30.12S
CROOKSTON      CLEAR     57  55  94 CALM      30.11S
FOSSTON        CLEAR     52  48  87 CALM      30.12S
DETROIT LAKES  PTCLDY    61  59  94 CALM      30.12S
MOORHEAD       PTCLDY    61  57  88 NE3       30.10S
PARK RAPIDS    PTCLDY    60  56  86 CALM      30.11S
MAHNOMEN       FAIR      57  55  93 CALM      30.11S
$$
MNZ006-009>011-018-025>026-290800-
   North Central Minnesota

CITY           SKY/WX    TMP DP  RH WIND       PRES   REMARKS
BAUDETTE       CLEAR     54  52  93 CALM      30.10S
FLAG ISLAND    CLEAR     66  63  88 CALM      30.09S
INTL FALLS     CLEAR     54  52  93 CALM      30.10R
WASKISH        CLEAR     55  54  94 CALM      30.10R
BIG FORK       CLEAR     54  54 100 CALM      30.11S
LONGVILLE      CLEAR     54  54 100 CALM      30.11S
GRAND RAPIDS   MOCLDY    56  53  90 CALM      30.14R
CRANE LAKE     CLEAR     50  48  93 CALM      30.13R
ORR            CLEAR     55  52  88 CALM      30.10R
COOK           CLEAR     52  52 100 CALM      30.12S
WALKER         FAIR      56  54  93 CALM      30.11S
$$
MNZ012-019>021-037-290800-
   Northeast Minnesota

CITY           SKY/WX    TMP DP  RH WIND       PRES   REMARKS
DULUTH         CLEAR     51  50  96 CALM      30.12R
ELY            CLEAR     50  48  93 CALM      30.13R
HIBBING        CLEAR     47  46  97 CALM      30.13R FOG
EVELETH        CLEAR     50  49  97 CALM      30.14R
DULUTH HARBOR  CLEAR     63  57  82 NE5       30.11R
TWO HARBORS    CLEAR     54  48  82 N5        30.10R
SILVER BAY     CLEAR     48  48 100 CALM      30.10R
GRAND MARAIS     N/A     58  51  78 CALM      30.09S
G MARAIS ARPRT CLEAR     46  45  93 NW3       30.14R
$$
MNZ029>031-032-039>041-046>048-054>057-064-290800-
   West Central Minnesota

CITY           SKY/WX    TMP DP  RH WIND       PRES   REMARKS
FERGUS FALLS   CLEAR     66  59  77 SE3       30.11S
WHEATON        PTCLDY    66  63  88 S7        30.11S
MORRIS         CLEAR     63  61  94 CALM      30.09F
ALEXANDRIA     CLEAR     60  55  83 CALM      30.12S
ELBOW LAKE     FAIR      63  59  88 E5        30.11S
WADENA         MOCLDY    59  57  94 CALM      30.11R
GLENWOOD       CLEAR     61  55  82 E3        30.11S
APPLETON       PTCLDY    63  59  88 CALM      30.09S
BENSON         CLEAR     59  54  82 CALM      30.10R
ORTONVILLE     CLOUDY    66  61  82 CALM      30.10R
MADISON        CLOUDY    64  59  82 CALM      30.09R
WILLMAR        FAIR      59  55  88 NE5       30.11R
$$
MNZ033>034-036-042>043-049>051-058-059-290800-
   Central Minnesota

CITY           SKY/WX    TMP DP  RH WIND       PRES   REMARKS
ST CLOUD       CLEAR     58  56  93 CALM      30.09R
SAUK CENTRE    FAIR      57  56  97 CALM      30.11S
PAYNESVILLE    CLEAR     55  55 100 CALM      30.11R
AITKIN         PTCLDY    55  52  88 CALM      30.10S
PINE RIVER     CLEAR     55  55 100 CALM      30.15R
BRAINERD       PTCLDY    58  57  97 CALM      30.12R
STAPLES        CLEAR     57  55  94 CALM      30.11S
LONG PRAIRIE   FAIR      55  54  94 CALM      30.12S
LITTLE FALLS   MOCLDY    55  54  94 CALM      30.11R
LITCHFIELD     CLEAR     63  61  94 CALM      30.10R
BUFFALO        CLOUDY    62  57  82 N3        30.09S
MAPLE LAKE     PTCLDY    61  59  91 N3        30.10R
HUTCHINSON     PTCLDY    64  59  82 NE6       30.09S
$$
MNZ037-044-045-052-053-290800-
   East Central Minnesota

CITY           SKY/WX    TMP DP  RH WIND       PRES   REMARKS
PRINCETON      CLEAR     57  55  94 CALM      30.09S
MORA           PTCLDY    54  52  94 CALM      30.11R
CAMBRIDGE      CLEAR     61  52  72 CALM      30.07R
RUSH CITY      MOCLDY    56  52  88 N3        30.09R
MOOSE LAKE     CLOUDY    55  54  94 NE3       30.09S FOG
HINCKLEY       FAIR      55  54  94 CALM      30.10R
CLOQUET        CLEAR     50  48  93 CALM      30.12R
MCGREGOR       CLOUDY    59  54  82 CALM      30.12S
$$
MNZ071>073-080-081-089-090-097-098-290800-
   Southwest Minnesota

CITY           SKY/WX    TMP DP  RH WIND       PRES   REMARKS
MONTEVIDEO     CLEAR     57  55  94 E5        30.11R
GRANITE FALLS  CLEAR     60  57  88 N6        30.10S
CANBY          MOCLDY    60  56  86 CALM      30.11S
MARSHALL       CLEAR     56  54  93 W7        30.10R
REDWOOD FALLS  CLEAR     63  55  75 N3        30.07F
OLIVIA         CLEAR     57  54  88 N3        30.08R
PIPESTONE      PTCLDY    61  55  82 NE3       30.10S
WINDOM         PTCLDY    59  57  94 N8        30.07F
WORTHINGTON    CLEAR     58  56  93 NW6       30.09S
JACKSON        CLOUDY    63  57  82 W3        30.07F
TRACY          PTCLDY    61  58  89 W3        30.10S
SLAYTON        PTCLDY    58  56  94 N6        30.10F
$$
MNZ065>067-074>077-082>085-091>093-290800-
   South Central Minnesota

CITY           SKY/WX    TMP DP  RH WIND       PRES   REMARKS
MANKATO        CLOUDY    64  57  77 N6        30.06S
NEW ULM        PTCLDY    64  57  77 N7        30.06S
ST JAMES       MOCLDY    55  54  94 NW3       30.07S
FAIRMONT       CLOUDY    63  46  55 NW6       30.04S
GLENCOE        CLOUDY    63  61  93 N3        30.07S
FARIBAULT      CLOUDY    64  63  94 N3        30.06S
OWATONNA       CLOUDY    64  59  82 NE7       30.04F
WASECA         CLOUDY    63  59  88 N5        30.06S
ALBERT LEA     CLOUDY    64  61  88 N8        30.03F
$$
MNZ078>079-086>088-094>096-290800-
   Southeast Minnesota

CITY           SKY/WX    TMP DP  RH WIND       PRES   REMARKS
ROCHESTER      CLOUDY    64  59  83 NE8       30.04S
RED WING       CLOUDY    66  63  88 N3        30.04S
STANTON        CLOUDY    64  61  88 CALM      30.05S
DODGE CENTER   CLOUDY   N/A N/A N/A NE8       30.04S
WINONA         CLOUDY    66  59  77 CALM      30.02S
AUSTIN         CLOUDY    64  57  77 NE8       30.02S
PRESTON        RAIN      60  59  95 N6        30.03S
$$
ABBREVIATIONS USED IN REMARKS
   TC - TEMPERATURES IN CELSIUS
  WCI - WIND CHILL INDEX
   HX - HEAT INDEX
  VSB - VISIBILITY
$$




USA.gov is the U.S. government's official web portal to all federal, state and local government web resources and services.